Tracking 18945 objects as of 19-Jan-2018
HD Live streaming from Space Station
objects crossing your sky now

OV1-2

Track OV1-2 now!
10-day predictions
OV1-2 is classified as:


NORAD ID: 1613
Int'l Code: 1965-078A
Perigee: 406.8 km
Apogee: 2,308.0 km
Inclination: 144.2 °
Period: 112.7 minutes
Semi major axis: 7728 km
RCS: 0.5041 m2 (medium)
Launch date: October 5, 1965
Source: United States (US)
Launch site: AIR FORCE WESTERN TEST RANGE (AFWTR)
aabbcc
Your satellite tracking list
Your tracking list is empty




NASA's NSSDC Master Catalog

Two Line Element Set (TLE):
1  1613U 65078A   18018.86201073 +.00001057 +00000-0 +69764-4 0  9991
2  1613 144.2362 099.9159 1230004 039.4713 328.9495 12.77809024319636
Source of the keplerian elements: AFSPC